Location: Castifao
(42.5040°N, 9.1124°E)
Time: 14:53:58
(UTC+00:00)

DELTA 2 R/B (1) - Pass Details

Date: 23 January 2020
Orbit: 791 x 802 km, 39.6° (Epoch: 25 February)

Event Time Altitude Azimuth Distance (km) Brightness Sun altitude
Rises 18:39:24 0° 271° (W) 3,293 8.2 -24.6°
Reaches altitude 10° 18:41:54 10° 268° (W) 2,365 7.1 -25.1°
Maximum altitude 18:47:24 61° 189° (S) 905 3.8 -26.1°
Enters shadow 18:47:57 57° 161° (SSE) 932 3.7 -26.2°
